Theta_e
284 284 284 284 284 284 284 284 284 284 284 284 284 284 284 284 284 284 284 284 284 284 284 284 284 284 284 284 284 284 284 284 284 284 284 284 285 285 285 285 285 285 285 285 285 285 285 285 285 285 285 286 286 286 285 286 286 286 286 287 287 287 287 288 288 288 288 288 288 289 289 289 289 289 290 290 290 290 291 293 294 294 293 293 293 294
284 284 284 284 284 284 284 284 284 284 284 284 284 284 284 284 284 284 284 284 284 284 284 284 284 284 284 284 284 284 284 284 284 284 284 284 284 285 285 285 285 285 285 285 285 285 285 285 285 285 285 285 285 285 285 285 286 286 286 286 287 287 287 287 287 288 287 288 288 288 289 289 289 289 290 290 290 291 292 293 292 292 292 292 292 293
284 284 284 284 284 284 284 284 284 284 284 284 284 284 284 284 284 284 284 284 284 284 284 284 284 284 284 284 284 283 284 284 284 284 284 284 285 285 285 285 285 285 285 285 285 285 285 285 285 285 285 285 285 285 286 286 286 286 286 286 286 286 286 287 287 287 287 287 288 288 288 289 289 289 290 290 291 291 292 291 291 291 291 291 292 292
284 284 284 284 284 284 284 284 284 284 284 284 284 284 284 284 284 284 284 284 284 284 284 284 284 284 284 284 284 284 284 284 284 284 284 284 285 285 285 285 285 285 285 285 285 285 285 285 285 285 285 285 285 285 285 285 285 285 286 286 286 286 286 287 287 287 287 287 288 288 288 288 289 289 290 290 290 290 290 289 290 290 290 291 291 292
284 284 284 284 284 284 284 284 284 284 284 284 284 284 284 284 284 284 284 284 284 284 284 284 284 284 284 284 284 284 284 284 284 284 284 285 285 285 285 285 285 285 285 285 285 285 285 285 285 285 285 285 285 285 285 285 285 285 285 286 286 286 286 286 287 287 287 287 288 288 288 288 289 289 289 289 289 289 289 288 289 289 290 290 291 292
284 284 284 284 284 284 284 284 284 284 284 284 284 285 285 285 285 285 285 285 285 285 285 285 284 284 284 284 284 284 284 284 284 285 285 285 285 285 285 285 285 285 285 285 285 285 285 285 285 285 285 285 285 285 285 285 285 285 285 286 286 286 286 286 286 286 286 287 287 288 288 288 289 289 289 289 288 288 288 288 288 288 289 290 290 291
284 284 284 284 284 284 284 284 284 284 285 285 285 285 285 285 285 285 285 285 285 285 285 285 285 284 284 284 284 284 284 284 285 285 285 285 285 284 285 285 285 284 284 285 285 285 285 285 285 285 285 285 285 285 285 285 285 285 285 285 285 286 286 286 286 286 286 287 287 287 288 288 288 288 288 288 288 288 288 287 288 288 289 290 290 291
284 284 284 284 284 284 285 285 285 285 285 285 285 285 285 286 285 285 285 285 285 285 285 285 285 285 285 285 285 285 285 285 285 285 284 284 284 284 284 284 284 284 284 284 284 285 285 285 285 285 285 285 285 285 285 285 285 285 285 285 285 285 285 286 286 286 286 287 287 287 288 288 288 288 288 288 288 287 287 287 287 288 289 290 290 291
285 285 285 285 285 285 285 285 285 285 286 286 286 286 286 286 286 286 285 285 285 285 285 285 285 285 285 285 285 285 285 285 285 285 285 284 284 284 284 284 284 284 284 284 284 284 284 285 285 285 285 284 284 284 284 284 285 285 285 285 285 285 285 285 285 286 286 287 287 287 287 288 288 288 288 288 287 287 286 286 287 288 289 290 290 291
285 285 285 285 285 285 286 286 286 286 286 286 286 286 286 286 286 286 285 286 286 286 286 286 286 286 285 285 285 285 285 285 285 285 284 284 284 284 284 284 284 284 284 284 284 285 285 285 285 284 284 284 284 284 284 284 284 284 284 285 285 285 285 285 285 286 286 286 287 287 287 287 287 287 288 287 287 286 286 287 288 288 289 290 290 291
285 285 286 286 286 286 286 286 286 286 286 286 286 286 286 286 286 286 286 286 286 286 286 286 286 285 285 285 285 285 285 284 284 284 284 284 284 284 284 284 284 284 284 284 284 284 284 284 284 284 284 284 284 284 284 284 284 284 284 285 285 285 285 285 285 286 286 286 286 287 287 287 287 287 287 287 286 286 286 287 288 289 289 290 290 291
286 286 286 286 287 287 287 287 287 287 287 287 287 287 287 287 286 286 286 286 286 286 285 285 285 285 285 285 285 284 284 284 284 284 284 284 283 283 283 283 283 283 283 283 283 283 283 283 283 283 283 283 283 283 284 284 284 284 284 284 285 285 285 285 285 286 286 286 286 286 286 287 287 287 287 287 286 286 286 287 288 289 289 290 290 291
286 287 287 287 287 287 287 287 286 286 287 287 287 287 287 287 287 286 286 286 285 285 285 285 285 285 284 284 284 284 284 284 284 284 284 283 283 283 283 283 283 283 283 283 283 283 282 282 282 282 283 283 283 283 283 283 284 284 284 284 284 284 285 285 285 285 285 286 286 286 286 287 287 287 287 287 287 287 287 288 289 289 289 290 290 291
287 287 287 287 287 287 287 286 287 287 287 287 288 287 287 286 286 286 285 285 285 285 285 285 284 284 284 284 284 284 284 284 284 283 283 283 283 283 283 283 283 283 283 283 282 282 282 282 282 282 282 282 283 283 283 283 283 283 283 284 284 284 285 285 285 285 285 286 286 286 286 287 287 287 287 287 287 287 288 288 289 289 290 290 290 291
287 287 287 287 287 287 286 286 287 287 287 287 287 287 286 286 285 285 285 285 285 284 284 284 284 284 284 284 284 284 283 283 283 283 283 283 283 283 283 283 283 283 283 283 282 282 282 282 282 282 282 282 282 282 282 283 283 283 283 284 284 284 285 285 285 285 285 285 286 286 286 287 287 287 287 288 287 287 288 288 289 289 290 290 291 291
287 287 287 287 287 286 286 287 287 287 287 287 287 286 286 285 285 285 285 284 284 284 284 284 284 284 284 283 283 283 283 283 283 283 283 283 283 283 283 283 283 283 283 283 283 282 282 282 282 282 282 282 282 282 283 283 283 283 283 284 284 284 285 285 285 285 285 285 286 286 286 287 287 287 287 287 287 288 288 288 288 289 290 290 290 291
287 287 287 287 286 286 286 287 287 287 287 287 286 285 285 285 285 285 284 284 284 284 284 284 284 284 284 283 283 283 283 283 283 283 283 283 283 283 283 283 283 283 283 283 283 283 282 282 282 282 282 282 282 282 283 283 283 283 283 284 284 284 285 285 285 285 285 285 286 286 286 287 287 287 287 287 287 287 287 288 288 289 290 290 290 291
287 287 286 286 286 287 287 287 287 287 287 286 285 285 285 285 285 284 285 284 284 284 284 284 284 284 283 283 283 283 283 283 283 283 283 283 283 283 283 283 283 283 283 283 283 283 283 282 282 282 282 282 282 283 283 283 283 283 283 284 284 284 285 285 285 285 285 285 286 286 287 287 287 287 287 287 287 287 287 288 288 289 290 290 290 291
286 286 286 286 287 287 288 287 287 286 286 285 285 285 285 284 284 284 284 284 284 284 284 284 284 283 283 283 283 283 283 283 283 283 283 283 283 283 283 283 283 283 283 283 283 283 282 282 282 282 282 282 282 283 283 283 283 283 284 284 284 284 285 285 285 285 285 285 286 286 286 286 287 287 287 286 286 287 287 287 288 288 289 290 290 290
286 286 287 287 288 288 287 287 286 286 285 285 285 285 285 285 284 284 284 284 284 284 284 284 283 283 283 283 282 282 282 282 282 282 282 282 282 282 283 283 283 283 283 283 282 282 282 282 282 282 282 282 282 283 283 283 283 283 284 284 284 284 284 285 285 285 285 286 286 286 286 286 286 286 286 286 286 286 286 287 288 288 289 290 290 290
286 287 287 287 287 287 287 286 286 285 285 285 285 285 285 285 285 285 284 284 284 284 284 283 283 283 282 282 282 282 282 282 282 282 282 282 282 282 282 282 282 282 282 282 282 282 282 282 282 282 282 282 282 282 283 283 283 283 284 284 284 284 284 284 285 285 285 285 285 286 286 286 286 286 285 285 285 286 286 287 287 288 289 289 289 290
286 286 287 287 286 286 286 285 285 285 285 285 285 285 285 285 285 285 285 284 284 284 283 283 282 282 282 281 281 281 281 281 281 281 282 282 282 282 282 282 282 283 283 283 282 282 282 282 282 282 282 282 282 282 283 283 283 283 283 284 284 284 284 284 285 285 285 285 285 285 285 285 285 285 284 285 285 286 286 287 287 288 288 289 289 290
286 286 286 286 286 286 286 285 285 285 285 285 285 285 285 285 285 285 284 284 284 283 283 282 282 281 281 281 281 281 281 281 281 282 282 282 282 282 282 282 283 283 282 282 282 282 282 282 282 282 282 282 282 282 283 283 283 283 283 284 284 284 284 284 285 285 285 285 285 285 285 285 285 284 284 285 285 286 286 287 288 288 288 289 289 290
287 287 286 286 286 286 286 286 285 285 285 285 285 285 285 285 284 284 284 284 283 282 282 281 281 281 281 281 281 281 281 281 281 282 282 282 282 282 282 282 282 282 282 282 282 282 282 282 282 282 282 282 282 282 282 282 283 283 283 283 284 284 284 284 284 284 284 285 285 285 285 285 285 285 285 285 285 286 286 287 288 288 288 289 289 290
287 287 287 287 286 286 286 286 286 285 285 285 285 285 284 284 284 283 283 283 282 282 281 281 281 281 280 280 280 280 280 281 281 281 282 282 282 282 282 282 282 282 282 282 282 282 281 281 281 281 281 282 282 282 282 282 282 282 283 283 283 283 284 284 284 284 284 285 285 285 286 285 285 285 285 285 286 286 287 288 288 288 289 289 289 289
288 287 287 286 286 286 286 286 285 285 285 285 284 284 284 283 283 283 283 282 282 281 281 281 280 280 280 280 280 280 280 280 280 280 281 281 281 281 281 281 281 281 281 281 281 281 281 281 281 281 281 281 281 281 282 282 282 282 283 283 283 284 284 284 284 284 285 285 285 285 285 286 286 286 286 286 286 287 287 288 288 289 289 289 289 289
287 287 286 286 286 285 285 285 285 284 284 284 284 284 283 283 283 283 282 282 282 281 281 281 280 280 280 280 280 280 280 280 280 280 280 280 280 281 281 281 281 281 281 281 281 281 281 281 281 281 281 281 281 281 281 282 282 283 283 283 284 284 284 284 285 285 285 285 285 285 285 285 286 286 286 286 286 287 288 288 288 288 289 289 289 289
286 286 285 285 285 285 285 285 284 284 284 284 283 283 283 283 283 282 282 282 281 281 281 280 280 280 280 279 279 280 280 280 280 280 280 280 280 280 281 281 281 281 281 281 281 281 281 281 281 281 281 281 281 281 282 282 283 283 283 283 284 284 284 284 284 285 285 285 285 286 286 286 286 286 286 286 287 287 288 288 289 289 289 289 289 289
285 285 285 285 285 285 284 284 284 283 283 283 283 283 283 282 282 282 282 281 281 281 280 280 280 280 279 279 279 279 279 280 280 280 280 280 281 281 281 281 281 281 281 281 281 281 281 281 281 281 281 281 281 282 282 282 282 283 283 283 283 283 283 284 284 285 285 285 285 286 286 286 286 286 286 286 287 287 288 289 289 289 290 290 289 290
285 285 285 285 285 284 284 283 283 283 283 283 283 283 282 282 282 282 281 281 281 281 280 280 280 279 279 279 279 279 279 280 280 280 280 281 281 281 281 281 281 281 281 281 281 281 281 281 281 281 281 281 281 282 282 282 282 282 282 282 282 283 283 284 284 285 285 285 285 285 286 286 286 286 286 286 287 287 288 288 289 290 290 290 290 290
286 286 285 285 284 284 284 283 283 283 283 283 282 282 282 282 282 282 281 281 281 281 280 280 279 279 279 279 279 279 279 280 280 280 280 280 280 281 281 281 281 281 281 281 281 281 281 281 281 281 281 281 281 281 281 281 281 282 282 282 282 283 283 283 284 285 285 285 286 286 286 286 286 286 286 286 286 287 287 288 289 289 290 290 290 290
286 285 285 285 284 284 283 283 283 283 283 283 282 282 282 282 282 282 282 281 281 281 280 280 279 279 279 279 279 279 279 279 279 279 279 280 280 280 280 280 280 280 281 281 281 281 281 281 281 281 281 281 281 281 281 281 281 282 282 282 283 283 283 284 284 285 285 285 286 286 286 286 286 286 286 286 286 286 286 287 288 288 289 290 290 290
285 285 285 284 284 284 283 283 283 283 283 283 283 282 282 282 282 282 282 281 281 281 280 280 280 279 279 279 279 279 279 279 279 279 279 279 280 280 280 280 280 280 280 281 281 281 281 281 281 281 281 281 281 281 281 281 281 282 282 282 283 283 283 284 284 285 285 285 286 286 286 287 287 287 287 287 287 287 286 287 287 288 288 289 290 290
285 285 284 284 284 283 283 283 283 283 283 283 283 282 282 282 282 282 282 281 281 281 280 280 280 279 279 279 279 278 279 279 279 279 279 279 279 280 280 280 280 280 280 280 281 281 281 281 281 281 281 281 281 281 281 281 281 282 282 282 283 283 284 284 284 285 285 285 286 286 286 287 287 287 287 287 287 287 287 287 287 287 288 288 289 289
285 284 284 284 283 283 283 283 283 283 283 283 283 282 282 282 282 282 282 281 281 281 281 280 280 279 279 279 279 278 279 279 279 279 279 279 279 279 279 279 280 280 280 280 280 280 281 281 281 281 281 281 281 281 281 281 281 282 282 282 283 283 284 284 284 285 285 285 285 286 286 287 287 287 288 288 288 288 288 288 288 288 288 288 288 288
284 284 284 284 283 283 283 283 283 283 283 283 283 282 282 282 282 282 282 282 281 281 281 280 280 280 279 279 279 279 279 279 279 279 279 279 279 279 279 279 279 279 279 280 280 280 280 280 281 281 281 281 281 281 281 281 281 282 282 282 283 283 283 284 284 284 284 285 285 285 286 286 287 287 287 288 288 289 289 289 289 289 288 288 288 288
284 284 284 284 283 283 283 283 283 283 283 283 283 282 282 282 282 282 282 282 281 281 281 281 280 280 280 279 279 279 279 279 279 279 279 279 279 279 279 279 279 279 279 279 279 280 280 280 280 280 281 281 281 281 281 281 281 281 282 282 282 282 283 283 283 284 284 284 285 285 285 286 286 287 287 288 288 289 289 289 289 289 289 289 288 288
284 284 284 284 283 283 283 283 283 283 283 283 282 282 282 282 282 282 282 282 281 281 281 281 281 280 280 280 280 279 279 279 279 279 279 279 279 279 279 279 279 279 279 279 279 279 280 280 280 280 280 281 281 281 281 281 281 281 282 282 282 282 282 283 283 283 284 284 285 285 285 286 286 287 287 288 288 288 289 289 289 289 289 289 289 289
284 284 284 284 283 283 283 283 283 283 283 283 282 282 282 282 282 282 282 282 281 281 281 281 281 280 280 280 280 280 280 279 279 279 279 279 279 279 279 279 280 279 279 280 280 280 280 280 280 280 280 281 281 281 281 281 281 281 281 282 282 282 282 282 283 283 284 284 284 285 285 286 286 287 287 288 288 288 289 289 289 289 290 290 290 289
284 284 284 284 283 283 283 283 283 283 283 282 282 282 282 282 282 282 282 281 281 281 281 281 281 280 280 280 280 280 280 280 280 279 279 279 279 280 280 280 280 280 280 280 280 280 280 280 280 280 280 281 281 281 281 281 281 281 281 282 282 282 282 282 283 283 283 284 284 285 285 286 286 287 287 288 288 288 289 289 289 290 290 291 291 291
284 284 284 284 283 283 283 283 283 283 282 282 282 282 282 282 282 282 282 281 281 281 281 281 281 280 280 280 280 280 280 280 280 280 280 280 280 280 280 280 280 280 280 280 280 280 280 280 280 280 281 281 281 281 281 281 281 281 282 282 282 282 282 282 282 283 283 284 284 285 285 286 286 287 287 288 288 289 289 289 289 290 291 292 292 292
284 284 284 284 283 283 283 283 283 282 282 282 282 282 282 282 282 282 281 281 281 281 281 281 281 281 281 281 281 281 281 280 280 280 280 280 280 280 280 280 280 280 280 280 280 280 280 280 280 281 281 281 281 281 281 281 281 281 282 282 282 282 282 282 282 283 283 284 284 285 285 286 286 287 287 288 288 289 289 289 289 289 291 292 293 293
284 284 284 283 283 283 283 283 283 283 282 282 282 282 282 282 282 281 281 281 281 281 281 281 281 281 281 281 281 281 281 281 280 280 280 280 280 280 280 280 280 280 280 280 280 280 280 280 281 281 281 281 281 281 281 281 281 281 282 282 282 282 282 282 282 282 283 283 284 284 285 285 285 286 287 287 288 288 289 289 289 289 290 292 293 294
284 284 283 283 283 283 283 283 283 283 282 282 282 282 282 282 282 282 281 281 281 281 281 281 281 281 281 281 281 281 281 281 281 280 280 280 280 280 280 280 280 280 280 280 280 280 280 281 281 281 281 281 281 281 281 281 281 281 282 282 282 282 282 282 282 282 282 283 284 284 285 285 285 286 286 287 287 288 289 289 289 289 290 291 292 294
284 284 283 283 283 283 283 283 283 283 282 282 282 282 282 282 282 282 282 281 281 281 281 281 281 281 281 281 281 281 281 281 281 281 280 280 280 280 280 280 280 280 280 280 280 280 280 281 281 281 281 281 281 281 281 281 282 282 282 282 282 282 282 282 282 282 283 283 283 284 285 286 286 286 286 287 287 288 289 289 289 290 289 290 291 293
284 284 283 283 283 283 283 283 283 283 282 282 282 282 282 282 282 282 282 282 281 281 281 281 281 281 281 281 281 281 281 281 281 281 281 280 280 280 280 280 280 280 280 280 280 280 280 280 281 281 281 281 281 282 282 282 282 282 282 282 282 282 282 282 282 282 282 283 283 284 285 286 286 286 286 286 287 288 289 289 289 290 290 290 291 292
284 284 283 283 283 283 283 283 283 283 283 282 282 282 282 282 282 282 282 282 282 281 281 281 281 281 281 281 281 281 281 281 281 281 281 280 280 280 280 280 279 280 280 280 280 280 280 280 280 281 281 281 282 282 282 282 282 282 282 282 282 282 283 282 282 282 282 283 283 284 285 286 286 286 286 286 287 288 289 289 290 290 290 290 291 291
284 284 283 283 283 283 283 283 283 283 283 283 282 282 282 282 282 282 282 282 282 282 281 281 281 281 281 281 281 281 281 281 281 281 281 280 280 280 280 280 279 279 279 280 280 280 280 280 280 280 281 281 281 282 282 282 282 282 282 283 283 283 283 283 283 283 283 283 283 284 284 285 286 286 287 287 288 288 289 289 290 290 290 290 291 291
284 284 283 283 283 283 283 283 283 283 283 283 283 283 282 282 282 282 282 282 282 282 282 281 281 281 281 281 281 281 281 281 281 281 281 280 280 280 280 279 279 279 279 280 280 280 280 280 281 281 281 281 281 282 282 282 282 282 282 283 283 283 283 283 283 283 283 283 283 283 284 285 285 286 287 287 287 288 289 289 290 290 290 290 290 291
284 283 283 283 283 283 283 283 283 283 283 283 283 283 283 283 282 282 282 282 282 282 282 282 281 281 281 281 281 281 281 281 281 281 281 280 280 280 279 279 279 279 279 279 280 280 280 280 281 281 281 282 282 282 282 282 282 283 283 283 283 283 283 283 283 283 283 283 283 283 284 284 285 286 287 287 287 287 288 289 290 290 290 290 290 291
283 283 283 283 283 283 283 283 283 283 283 283 283 283 283 283 283 282 282 282 282 282 282 282 281 281 281 281 281 281 281 281 281 281 281 280 280 280 279 279 279 279 279 279 280 280 280 280 281 281 281 282 282 282 283 283 283 283 283 283 283 283 283 283 283 283 283 283 283 284 284 284 285 285 286 286 287 287 289 290 290 290 290 290 290 290
Wind_Speed
30 30 30 29 29 29 30 31 31 31 32 33 33 33 33 34 34 35 36 36 36 37 37 37 37 38 38 39 39 38 38 38 38 39 39 39 39 39 40 40 40 41 41 41 41 41 41 42 42 42 43 44 44 45 46 46 47 47 47 46 45 45 45 44 44 44 44 43 43 42 41 40 40 40 41 42 43 43 44 46 48 49 49 49 49 49
29 29 29 29 28 29 30 31 30 30 31 32 33 34 34 35 36 36 37 37 36 36 37 37 37 38 38 39 39 38 38 38 39 39 39 39 39 40 40 40 40 41 41 41 41 41 42 42 43 43 44 45 45 46 46 46 46 46 45 45 45 45 44 44 44 43 43 42 42 41 40 38 38 39 40 41 41 41 42 45 47 49 50 50 50 50
30 29 29 28 28 28 30 30 31 31 31 32 34 35 35 36 37 37 37 37 36 36 37 37 38 38 39 39 39 38 38 38 39 39 39 39 39 40 40 40 41 41 41 42 42 42 43 44 45 45 45 45 45 44 44 44 44 44 45 45 45 44 44 44 43 43 42 42 41 40 39 37 37 38 39 39 40 41 43 46 49 50 50 51 51 51
30 29 29 29 28 29 30 30 31 31 32 32 34 36 36 37 37 37 37 37 36 37 37 38 38 38 38 38 39 39 38 39 38 38 38 39 40 40 40 40 41 41 42 43 43 43 44 45 45 45 44 44 43 43 43 43 44 44 45 45 45 44 43 43 42 42 42 41 40 39 37 36 36 37 37 38 39 41 44 47 49 51 51 51 52 52
30 29 29 29 29 30 30 30 30 31 32 32 34 35 36 37 36 36 37 36 36 37 37 37 37 36 36 37 38 39 39 38 38 39 39 39 40 40 41 41 41 42 42 43 43 43 43 43 43 43 42 42 42 41 42 42 43 44 44 44 44 43 42 42 42 42 42 40 39 37 35 35 36 36 37 38 39 40 42 45 48 50 51 52 52 53
31 30 29 29 30 30 31 31 31 31 32 32 33 35 36 36 36 36 37 36 36 36 36 36 36 36 37 38 39 39 39 39 39 39 40 40 40 40 40 40 41 41 41 42 42 41 41 41 41 41 40 40 40 41 41 42 42 43 44 44 43 42 41 41 41 42 41 40 38 36 34 35 35 36 36 37 38 39 40 43 46 48 50 51 52 54
32 31 30 30 30 30 30 31 31 31 31 32 33 35 36 36 36 36 36 36 36 35 35 36 36 36 37 38 38 38 39 39 40 41 41 40 39 39 39 40 40 41 41 40 40 40 39 39 39 39 39 39 40 40 41 42 43 43 44 44 43 42 41 41 41 41 41 39 37 35 34 34 34 35 35 36 37 37 39 41 43 46 48 50 51 52
33 32 31 30 31 31 31 31 31 30 31 33 35 36 37 37 36 35 35 35 35 35 36 36 36 36 36 36 36 36 37 39 40 40 39 38 37 38 38 39 40 40 40 40 39 39 38 38 38 38 39 39 40 41 42 42 42 43 43 43 42 41 40 40 40 40 39 37 35 34 34 34 34 33 33 34 35 36 38 40 42 44 46 47 48 50
33 33 32 31 31 32 33 32 32 32 32 33 35 36 37 37 36 34 33 34 34 34 34 35 35 35 35 35 34 35 35 36 36 36 37 37 38 39 39 40 40 40 40 39 38 38 38 37 37 38 39 40 40 41 41 41 41 41 41 41 40 39 38 37 38 38 37 36 34 33 33 33 33 32 32 33 34 36 38 39 41 42 44 45 46 47
32 32 32 32 32 32 34 34 33 33 32 33 35 37 37 36 35 34 33 33 33 32 31 31 33 34 35 35 35 34 34 35 35 36 37 38 39 39 39 39 39 39 39 38 37 37 37 37 37 38 39 39 39 39 38 38 38 39 39 39 38 37 36 35 35 36 35 34 33 32 33 32 32 31 32 32 33 35 37 38 39 41 42 43 44 45
32 31 31 31 32 32 32 32 32 32 33 34 35 36 35 33 32 32 32 32 32 32 31 31 32 34 35 36 36 35 35 35 37 38 38 38 37 37 37 36 36 36 36 35 35 35 35 36 37 37 37 37 37 36 36 36 36 36 36 36 35 34 33 33 33 33 33 32 32 32 32 31 31 30 31 31 32 33 35 35 37 38 40 42 43 44
30 28 28 30 32 32 30 29 29 30 32 33 33 33 31 29 27 27 28 32 34 35 35 36 36 36 35 36 36 36 36 36 38 38 37 36 36 37 36 34 33 32 32 33 33 33 33 34 34 35 35 34 34 34 34 34 34 35 35 34 33 32 31 31 31 31 31 31 31 31 31 30 30 30 30 30 31 32 32 33 34 36 38 40 42 43
27 27 29 30 31 30 28 29 30 31 31 32 30 28 26 25 25 26 29 33 35 36 37 37 38 38 37 36 34 34 35 37 38 38 36 35 34 34 32 31 31 31 31 31 31 31 32 32 32 33 33 33 33 33 33 33 34 34 34 33 32 31 30 29 29 29 29 30 30 30 30 29 29 29 29 29 29 30 30 31 32 34 36 38 40 42
27 30 31 31 29 29 28 29 31 32 32 30 28 26 26 27 29 30 32 34 36 36 35 36 38 39 39 36 34 33 33 34 35 35 34 33 31 29 28 28 30 31 31 30 31 31 31 31 31 32 32 32 32 32 33 33 34 33 33 32 31 30 29 28 28 28 29 29 29 29 29 29 28 28 28 28 29 29 29 29 30 31 34 36 38 40
30 30 29 28 29 29 29 29 30 31 31 28 27 27 29 31 32 32 33 34 35 36 36 37 38 39 38 35 32 30 30 31 31 32 32 32 31 30 28 29 30 31 31 30 30 30 30 30 30 31 32 32 33 33 33 33 33 33 33 32 31 29 28 28 28 28 28 29 29 29 28 28 27 27 28 28 28 28 28 28 28 29 32 34 37 38
30 28 28 28 29 30 29 30 30 30 29 28 28 28 30 31 32 32 33 34 35 35 36 37 37 37 37 35 32 29 28 29 29 30 30 32 32 30 28 29 30 31 31 30 29 29 29 30 30 31 32 33 33 33 33 33 33 33 33 32 31 29 28 28 28 28 28 29 29 28 28 27 27 27 27 28 28 27 27 27 28 28 30 32 34 36
29 28 28 29 30 31 31 31 30 29 28 28 29 29 30 30 31 33 34 35 35 34 34 33 33 34 36 36 33 30 28 28 29 30 31 32 31 30 28 28 29 30 30 30 29 29 29 30 31 32 33 33 34 33 33 33 34 33 33 32 31 30 29 28 28 28 28 29 28 28 27 27 27 27 27 27 27 27 27 27 27 28 29 30 32 34
29 28 29 30 32 32 32 30 28 28 28 29 30 31 31 32 33 35 35 34 33 33 33 33 33 33 34 35 35 33 30 29 30 31 32 32 32 30 28 27 28 30 31 31 31 31 31 31 32 32 33 33 34 34 34 34 34 34 33 32 31 29 29 28 28 28 28 28 28 27 27 27 26 27 27 27 27 26 26 27 27 28 28 29 31 32
30 30 31 32 33 32 29 28 28 28 29 29 30 32 34 34 35 36 35 34 33 32 33 33 33 33 34 35 36 35 32 32 33 34 34 34 34 32 30 29 29 31 32 31 31 31 31 32 32 33 33 33 34 34 34 34 34 33 33 31 30 29 28 27 27 27 27 27 27 27 27 27 27 27 27 27 26 26 26 26 28 28 28 29 30 32
32 32 32 32 31 30 30 30 31 30 29 30 32 35 38 37 37 36 35 34 33 33 32 32 32 33 34 36 37 37 36 35 34 35 35 36 35 34 32 30 30 32 33 32 31 30 31 31 31 32 32 32 33 33 33 33 33 33 32 30 29 28 28 27 27 27 27 27 27 27 27 27 27 27 27 26 26 26 25 26 27 28 28 29 30 31
35 34 33 30 29 31 32 32 32 32 31 32 34 36 38 37 36 35 34 34 33 32 32 32 32 34 36 37 39 39 38 37 35 34 34 34 34 32 30 29 29 30 31 31 30 30 30 30 30 31 31 32 32 32 33 33 33 33 32 30 29 28 28 27 27 27 27 27 28 28 28 28 28 27 27 26 26 25 25 26 26 27 28 29 30 30
33 33 32 31 31 32 33 34 34 33 34 35 37 38 37 36 35 34 34 34 33 33 34 34 36 37 38 38 39 40 38 35 33 32 31 32 32 31 29 27 26 27 28 29 29 29 29 29 30 31 31 31 32 32 33 33 33 33 32 30 29 28 27 27 27 27 27 28 29 29 29 29 28 27 26 25 25 25 25 25 26 26 27 28 29 29
30 32 32 32 32 32 32 33 34 34 35 36 36 36 36 35 35 35 35 35 35 35 36 37 38 38 38 37 36 35 33 31 29 29 29 30 30 29 27 26 25 26 27 28 29 29 29 29 30 31 31 31 32 32 32 33 33 33 32 30 29 28 27 27 27 27 28 29 29 30 29 29 28 27 26 25 25 25 25 25 25 26 26 27 28 28
29 30 30 29 29 29 30 31 33 34 34 34 34 33 33 33 34 35 35 35 35 35 36 36 37 36 35 34 33 31 29 26 25 25 26 28 28 28 26 25 25 26 27 28 28 28 29 30 30 31 31 31 31 32 32 32 32 32 31 30 29 28 27 27 27 27 27 28 29 29 29 28 27 26 25 25 24 24 24 24 24 25 25 26 27 27
27 27 26 26 27 28 29 30 31 31 31 31 31 31 31 31 32 32 32 33 33 33 33 33 33 33 33 32 30 29 27 24 22 22 24 26 27 27 26 25 25 26 28 28 28 28 28 29 30 30 30 30 31 31 32 32 31 30 29 28 26 26 25 25 25 25 26 27 28 28 28 28 27 26 25 24 24 24 24 24 23 23 24 25 26 26
25 24 25 27 28 30 31 31 30 29 29 28 28 28 28 28 29 29 30 30 30 30 30 31 31 32 32 30 29 28 26 23 21 21 23 24 26 27 27 25 25 26 28 28 28 27 28 29 30 30 29 30 31 32 31 30 29 28 27 25 24 23 22 23 23 23 24 25 26 27 27 27 27 26 25 24 24 24 23 23 23 22 22 23 24 25
25 26 28 30 31 31 30 29 28 27 26 26 25 24 24 25 26 28 29 29 29 29 29 29 31 32 31 30 29 28 26 24 23 22 23 25 26 28 27 25 24 25 27 27 27 27 27 28 29 29 29 30 31 31 30 28 27 26 25 24 22 21 21 21 21 22 23 24 26 27 27 27 26 26 25 24 23 23 23 22 22 21 21 22 23 23
25 28 29 30 29 28 27 26 26 25 24 23 22 21 21 22 25 27 29 29 29 29 29 29 30 30 31 29 29 29 27 25 24 23 23 24 25 25 25 24 23 23 24 26 27 27 26 26 27 28 28 29 28 28 27 26 25 25 25 23 22 21 20 20 20 20 21 23 24 25 26 26 26 25 24 23 23 23 22 21 20 19 19 20 21 22
27 28 28 27 25 25 25 26 26 25 23 21 20 19 20 21 24 27 29 29 29 29 29 29 29 29 30 30 31 30 28 25 23 21 20 21 22 23 23 22 21 22 23 25 26 26 26 25 24 24 24 24 24 24 24 25 25 25 25 24 22 21 20 19 18 18 19 21 23 24 25 25 25 25 24 23 23 22 21 20 19 18 18 18 19 20
27 27 25 24 24 26 28 28 26 24 22 20 19 20 21 22 25 27 28 28 28 28 29 29 29 29 29 30 30 29 26 23 20 17 17 19 21 22 22 22 22 22 23 24 25 26 26 25 23 22 21 22 23 24 25 27 28 28 27 25 23 21 19 17 16 17 18 19 21 22 23 24 24 24 24 23 23 22 21 19 18 17 16 17 17 18
25 24 24 25 27 29 29 27 25 23 21 20 20 21 22 24 26 27 28 27 27 27 27 28 28 28 28 28 27 27 26 24 21 18 18 20 22 23 24 24 24 24 23 22 22 24 26 25 24 22 21 22 24 26 28 29 29 29 27 25 23 21 19 16 15 15 16 18 19 20 21 22 22 22 22 22 22 22 21 20 18 17 16 16 17 17
24 24 25 27 29 29 27 25 23 22 21 21 22 23 24 25 25 26 26 26 26 26 27 28 28 28 28 28 27 27 28 28 26 24 22 23 25 26 26 25 25 25 24 23 22 23 24 25 26 25 24 24 25 27 28 28 28 27 25 24 23 22 19 17 16 15 16 16 17 18 18 19 20 20 21 21 21 21 21 20 19 18 18 17 17 16
24 25 26 27 27 26 24 22 21 21 21 21 22 23 24 24 25 25 25 25 25 26 27 27 28 29 29 29 29 29 30 30 28 26 24 24 25 26 26 25 25 25 25 24 24 24 24 26 27 28 27 26 25 25 26 26 26 25 24 23 23 22 20 18 17 16 16 15 16 16 17 17 18 19 19 19 19 19 20 19 19 19 19 18 18 17
23 24 25 25 24 23 22 21 20 20 20 21 22 23 24 24 24 25 25 25 26 26 27 28 28 28 29 29 30 31 31 30 28 26 25 24 25 25 26 26 26 26 25 25 24 25 25 26 27 27 27 27 26 25 25 25 25 24 24 23 22 21 20 19 18 17 16 16 16 16 16 16 17 17 18 18 18 18 18 18 18 19 19 19 18 17
22 22 22 22 21 20 20 20 19 19 20 21 22 23 24 24 24 25 25 26 26 26 27 28 28 29 30 30 31 32 33 32 29 27 26 26 26 27 27 27 26 26 26 25 25 25 25 26 26 26 26 27 27 26 24 24 24 24 24 23 22 21 20 19 18 18 17 16 16 16 16 16 16 16 16 16 16 16 16 16 17 17 18 18 18 18
20 20 20 19 19 19 19 19 19 20 20 21 23 24 24 24 24 24 25 25 26 26 27 27 28 29 30 30 31 33 33 32 30 28 27 27 28 29 29 28 27 27 26 26 26 26 26 26 27 27 26 27 27 26 25 23 22 23 23 23 22 21 20 19 19 18 18 17 17 17 17 17 17 17 16 16 15 15 15 15 16 16 17 17 17 17
19 19 19 19 19 19 19 19 19 20 20 21 23 24 24 24 24 24 24 25 26 26 27 27 27 28 28 29 30 32 32 31 30 28 27 27 28 29 31 30 30 29 27 27 26 26 26 27 27 27 26 25 25 25 23 23 23 23 24 24 23 22 21 21 19 18 18 17 17 17 17 17 18 18 17 16 15 15 15 15 16 16 16 16 17 17
19 19 19 19 18 18 19 19 20 20 20 21 23 24 24 24 23 24 24 25 26 26 27 27 27 27 28 28 29 30 31 31 30 29 28 27 27 29 31 32 31 30 29 28 28 27 27 27 27 27 26 26 25 24 24 24 23 24 24 24 24 24 24 23 21 19 17 17 17 18 17 17 17 18 18 17 16 15 15 15 15 15 15 16 16 16
18 18 18 18 18 18 18 19 20 20 20 21 22 23 23 24 24 24 25 26 26 27 27 27 27 28 28 28 28 29 29 30 30 29 28 27 26 27 29 30 31 30 30 30 29 28 28 27 27 27 26 26 26 25 25 24 23 23 24 24 25 25 25 24 22 20 18 17 17 18 17 17 17 17 17 17 16 15 15 14 14 13 13 14 15 16
18 18 18 18 18 19 20 20 20 20 20 21 22 23 24 24 24 25 25 26 27 27 27 27 27 27 27 27 27 28 28 28 28 28 27 26 25 25 25 27 28 29 29 29 28 28 28 28 28 28 28 28 27 27 26 25 24 23 23 23 24 24 23 24 24 22 20 18 18 17 17 16 16 16 16 15 15 15 14 14 13 11 11 12 13 15
18 18 18 19 20 20 20 20 19 19 20 21 22 23 24 24 25 25 26 26 27 28 28 28 27 27 27 27 27 27 27 27 27 26 26 25 25 25 24 25 25 26 26 27 27 27 28 28 28 28 28 28 28 28 29 28 26 24 23 23 23 24 25 25 25 23 21 18 16 15 14 15 15 15 15 15 15 14 14 13 13 11 9 10 12 14
18 18 19 20 20 21 20 20 19 19 20 21 22 23 24 24 24 25 25 26 27 28 28 28 28 28 29 29 29 28 27 27 26 26 25 25 25 25 25 25 24 24 25 26 27 27 27 27 27 28 28 28 28 28 28 28 27 25 23 23 23 24 24 24 23 22 19 17 15 13 13 14 14 14 14 15 15 14 14 13 13 12 11 9 10 12
19 19 19 20 20 20 20 20 20 20 20 21 22 23 24 24 24 24 25 26 27 28 28 28 28 28 29 30 30 30 29 27 26 25 25 25 25 25 25 25 25 24 24 25 26 27 27 27 27 27 27 27 27 28 29 29 28 26 24 23 22 22 22 22 21 20 18 17 16 14 13 13 12 13 14 15 15 15 14 14 14 14 13 12 10 10
20 20 20 20 19 19 19 19 20 20 21 22 23 23 24 24 23 24 24 26 27 28 28 28 28 28 28 29 30 30 30 28 27 25 25 25 25 25 25 26 26 25 24 24 25 26 26 26 26 26 26 26 27 28 29 29 28 27 26 24 22 22 22 22 22 21 20 20 18 16 13 12 11 12 13 14 15 15 15 14 14 14 15 14 14 13
20 19 19 19 18 18 18 19 20 21 21 22 23 23 24 23 23 23 24 26 27 27 27 27 27 27 28 29 30 30 30 29 28 27 26 25 25 25 25 26 26 26 25 24 24 24 25 26 26 26 26 26 26 27 28 28 28 28 26 24 23 22 23 23 23 22 21 21 19 17 13 12 12 13 14 15 15 15 15 14 14 14 15 16 16 15
19 19 19 18 18 18 18 19 20 21 22 23 23 23 23 23 23 23 24 25 26 26 27 27 26 26 27 28 29 29 29 29 29 29 28 27 26 26 26 27 26 26 26 25 24 23 24 25 26 26 26 27 27 28 28 28 28 28 27 25 24 23 23 23 22 21 21 20 19 17 14 12 12 14 15 16 16 16 16 15 14 14 15 17 18 18
20 20 20 20 20 19 19 19 20 21 22 22 23 22 22 22 22 23 24 25 25 26 26 27 26 26 27 28 28 28 28 29 29 30 29 29 28 27 27 27 27 27 26 26 25 24 24 24 24 25 26 27 28 28 28 28 27 27 27 26 24 24 23 23 22 21 20 20 19 18 15 13 13 14 15 16 17 18 18 17 16 16 16 17 18 19
21 21 21 22 21 21 20 20 20 20 21 22 22 22 22 22 22 23 24 25 26 26 26 26 27 27 28 28 28 27 27 27 28 29 29 29 29 28 27 27 27 27 26 26 26 25 25 24 23 23 24 26 28 29 29 29 28 28 27 26 25 25 24 24 23 21 20 19 19 18 16 15 14 15 15 16 18 19 19 18 18 17 17 18 19 19
22 22 23 23 22 22 21 21 20 20 20 21 21 22 22 21 21 22 23 25 25 26 26 26 27 27 28 28 28 28 27 27 27 28 28 29 29 28 28 28 27 27 27 26 26 26 25 25 23 22 21 22 25 28 30 30 29 28 27 27 26 26 25 24 23 21 20 19 19 18 17 16 15 14 15 16 18 19 20 20 19 18 18 19 20 20
23 24 24 24 24 23 22 21 20 20 20 20 21 21 22 22 22 23 24 24 25 25 25 26 26 26 27 28 29 29 28 27 28 28 29 29 29 29 28 28 27 27 27 26 25 25 24 24 23 22 20 20 21 23 26 27 28 27 27 27 27 26 25 25 24 22 20 18 18 18 18 17 15 14 14 16 18 19 20 21 20 19 19 19 20 22
24 25 25 25 25 24 23 22 20 19 19 20 21 21 22 22 23 24 24 25 25 25 25 26 26 26 27 28 28 28 28 27 28 29 29 29 29 28 28 27 27 26 25 25 24 23 22 22 21 21 20 18 17 18 21 23 25 26 26 26 26 25 25 25 24 22 20 18 17 17 17 17 17 16 15 16 17 19 21 22 21 20 19 19 20 22
Wind_Direction
284 286 288 288 287 286 286 288 288 288 287 289 290 291 291 290 288 287 287 286 285 283 282 281 281 282 282 283 283 284 286 287 288 288 288 288 288 288 288 288 288 287 287 286 285 284 283 282 280 279 277 276 275 275 274 274 275 276 277 278 278 278 278 278 278 278 279 280 280 281 282 282 283 284 285 287 288 290 290 291 292 293 293 292 293 295
286 287 287 287 287 286 286 288 288 287 286 287 289 290 291 291 290 289 288 286 285 283 282 282 282 282 282 283 283 284 286 287 288 289 289 289 289 288 288 288 287 287 286 285 284 283 282 281 280 278 276 276 276 277 278 278 278 278 278 278 278 278 278 278 278 278 279 280 280 280 281 282 283 283 284 286 287 288 289 289 288 288 289 292 294 296
287 288 287 287 286 286 286 288 288 288 287 288 290 292 292 291 290 289 288 287 285 283 283 283 283 283 284 284 284 285 286 288 289 289 290 291 291 290 289 288 287 287 286 285 283 282 282 280 279 278 279 279 281 281 282 282 281 280 279 279 278 278 278 278 278 278 279 279 280 280 282 282 283 282 283 284 285 285 285 285 286 287 289 292 295 297
287 286 287 288 287 287 286 287 289 289 289 289 292 294 292 290 289 287 287 286 286 285 285 284 284 284 285 285 287 288 288 290 291 290 290 292 292 290 289 288 287 287 286 285 283 282 281 282 282 282 283 283 283 284 283 282 281 280 280 279 279 279 279 279 278 279 279 279 279 280 281 282 282 281 282 282 282 283 284 285 286 287 289 292 294 295
285 285 286 288 289 289 288 288 289 290 291 291 292 293 292 291 289 288 288 288 287 287 287 287 286 286 286 287 288 289 289 290 291 291 291 292 292 291 289 288 288 287 286 285 283 282 282 282 283 284 284 284 284 283 283 282 281 280 280 280 279 279 279 279 278 278 278 279 279 280 280 280 280 280 280 281 282 284 285 287 288 288 289 291 291 292
284 285 286 287 288 288 288 289 290 291 292 292 292 292 293 292 291 290 289 289 289 289 289 289 289 288 288 288 288 289 290 291 292 292 292 293 293 291 290 289 288 288 287 285 283 282 282 282 282 283 283 283 283 283 282 282 281 280 279 279 279 279 279 279 279 279 279 279 280 280 279 278 278 278 280 281 282 285 287 289 290 290 290 290 291 292
284 285 285 286 286 287 288 288 290 291 291 292 294 294 294 293 291 289 288 289 289 289 290 290 289 289 289 289 290 291 292 293 294 294 294 293 293 292 291 290 289 288 287 285 283 282 281 281 281 281 282 282 282 282 282 282 281 280 279 279 279 279 279 279 279 279 280 280 280 280 279 278 278 278 280 281 283 285 287 289 291 291 290 291 292 294
283 284 284 286 287 288 288 288 289 290 292 293 294 294 294 292 290 289 288 289 289 289 289 290 290 291 291 293 294 294 294 295 295 294 294 293 293 292 292 291 290 289 287 285 283 281 281 281 281 281 282 282 283 283 282 281 280 279 279 279 279 279 279 280 280 280 280 281 281 280 278 278 278 279 280 281 282 284 287 289 291 291 292 292 294 296
281 283 284 286 287 289 290 289 290 291 292 292 291 291 291 290 289 289 289 290 290 290 291 291 293 294 295 295 295 295 294 293 292 292 291 291 292 292 291 290 290 288 286 284 282 281 280 280 281 282 283 283 283 283 282 281 280 279 279 279 279 280 280 281 281 281 281 281 281 280 279 278 279 279 280 281 282 285 287 289 291 292 293 294 296 299
279 281 283 286 288 288 289 290 291 293 293 292 290 288 288 287 288 289 291 291 293 294 294 294 295 295 296 296 295 294 293 291 290 289 289 290 290 290 290 288 288 287 285 283 281 280 280 280 281 282 283 284 283 283 282 281 280 279 279 280 280 281 281 282 282 282 282 282 281 280 279 279 279 280 280 281 283 285 288 290 292 293 295 295 298 301
277 280 283 287 289 289 288 288 290 293 294 292 290 288 286 286 287 289 292 294 296 298 297 296 295 295 295 296 296 295 293 291 291 290 289 289 288 288 288 288 286 285 284 282 280 279 279 280 281 282 283 283 283 283 282 282 281 281 280 281 281 282 283 283 283 282 282 282 281 280 279 280 280 281 281 282 284 286 289 291 293 295 296 296 299 303
276 280 284 287 289 290 288 288 291 293 294 293 291 289 289 290 291 293 294 297 298 299 299 298 296 295 295 296 296 295 294 293 292 291 290 289 288 289 289 289 288 286 284 282 280 279 279 280 281 282 283 283 283 283 283 283 282 282 282 282 283 283 284 284 283 283 283 282 281 281 281 281 282 282 283 284 285 287 289 292 294 296 297 298 300 304
276 282 286 287 288 288 288 291 293 295 295 293 292 291 293 296 298 298 297 297 298 299 299 299 298 297 296 296 295 294 294 293 292 291 290 288 288 288 288 288 287 286 285 282 280 279 279 280 282 282 283 283 283 283 283 283 282 282 283 283 284 284 285 285 284 283 283 282 282 282 282 283 284 285 285 285 286 287 289 291 294 296 297 299 302 305
281 286 287 286 286 287 289 292 294 294 294 293 292 293 295 298 300 300 299 297 297 298 298 297 297 297 297 297 295 294 293 293 292 291 290 289 288 286 285 285 287 287 284 281 279 279 280 280 281 282 283 283 283 283 284 284 283 283 284 284 285 286 286 285 285 284 283 282 283 283 283 284 285 285 286 286 286 286 287 290 293 296 297 299 303 305
286 287 285 285 286 288 290 292 292 292 292 292 293 296 298 300 300 300 299 298 298 298 298 298 297 297 297 297 297 297 295 293 291 290 289 289 288 286 286 286 286 286 284 281 279 279 280 280 280 281 282 283 283 283 284 284 284 284 285 285 286 286 286 286 285 284 283 282 282 283 284 284 285 285 285 284 284 285 286 288 291 294 296 299 302 304
285 284 283 285 287 288 289 290 290 291 292 293 296 299 301 301 301 300 299 298 298 298 299 299 299 298 299 299 299 299 297 295 292 290 288 288 287 286 285 285 286 285 283 280 279 279 280 280 281 281 282 282 283 284 284 284 284 284 285 285 286 287 287 286 285 284 282 282 282 282 283 284 284 285 284 283 282 283 284 286 289 293 296 299 302 303
282 282 283 285 286 287 288 289 290 291 293 296 299 300 301 300 300 299 299 298 298 298 298 298 298 299 300 301 301 301 300 297 294 291 288 287 286 285 285 284 283 283 282 281 280 280 281 282 282 282 283 283 284 284 284 284 284 284 285 286 287 287 287 286 285 283 282 281 281 282 282 283 283 283 282 281 280 280 282 284 287 290 293 297 300 301
280 282 283 283 284 286 288 289 291 293 296 298 299 300 299 299 299 299 299 299 298 297 296 296 296 296 298 300 301 302 302 299 296 294 292 290 289 288 288 287 286 285 285 283 283 282 283 283 283 283 283 284 284 285 284 284 284 285 285 286 286 287 287 286 285 283 281 281 281 281 281 281 281 280 280 279 279 279 280 281 284 288 292 298 299 298
280 281 281 281 283 285 288 290 292 295 297 298 299 300 299 299 300 300 299 298 297 295 295 295 295 295 296 297 299 300 301 300 298 296 294 293 291 291 291 289 288 287 285 284 283 283 284 284 283 283 283 284 284 284 284 284 284 284 285 286 286 287 287 287 285 283 282 281 281 280 280 279 279 278 277 276 276 276 277 279 281 284 289 294 297 298
278 279 279 280 283 286 288 289 291 293 295 296 297 298 299 300 300 300 298 298 296 295 294 294 295 295 296 297 298 299 299 298 297 296 294 292 290 289 289 287 286 284 284 283 282 283 284 284 284 284 285 285 285 285 285 284 284 285 285 286 286 287 287 286 285 283 282 281 280 279 278 277 276 275 273 272 272 273 274 276 279 282 285 291 297 300
275 276 277 279 282 284 286 288 290 292 294 296 298 299 299 299 299 299 298 298 297 297 296 296 296 296 297 297 297 297 297 296 295 293 292 290 289 288 288 286 285 283 282 282 283 284 285 285 285 285 286 286 286 286 285 285 285 285 286 286 286 286 286 285 284 282 281 279 278 276 275 274 274 272 270 269 269 270 271 274 277 280 283 289 294 297
271 274 276 278 280 282 285 288 291 294 296 298 299 299 299 299 299 299 299 299 299 298 298 297 296 296 296 296 295 296 297 296 293 291 289 288 288 288 289 288 285 282 282 283 285 286 286 286 286 286 286 286 286 286 286 286 285 286 286 286 286 286 285 284 282 281 279 277 276 274 273 272 271 269 268 267 267 268 269 273 276 278 281 286 292 295
272 274 276 279 281 284 287 290 293 296 299 300 301 301 301 300 300 299 299 299 298 298 297 297 297 297 297 296 297 298 298 297 294 290 287 286 286 287 290 290 287 285 283 285 287 288 288 288 287 287 288 287 287 287 287 286 286 286 286 286 286 286 284 283 281 279 277 276 274 273 273 272 270 269 267 265 265 266 267 270 274 277 279 282 287 292
275 276 279 282 285 287 289 292 295 298 300 300 300 299 298 298 297 296 295 296 296 296 297 298 299 299 299 300 300 300 299 298 295 291 287 285 286 288 290 291 289 287 286 287 288 289 289 289 288 288 289 289 288 288 288 288 288 288 288 287 287 286 284 283 281 279 277 275 274 273 272 271 270 268 266 264 263 264 266 269 272 275 278 280 285 289
275 277 280 283 286 287 289 291 294 295 296 297 296 295 295 295 294 294 294 294 296 297 299 300 300 300 301 302 302 301 299 298 295 292 289 288 288 289 290 290 289 288 288 288 289 290 289 289 290 290 290 290 290 291 291 292 292 292 291 290 289 288 286 284 282 280 277 275 273 272 271 270 269 267 265 263 262 263 264 267 269 272 275 279 283 286
272 274 278 282 284 286 288 289 291 293 293 294 294 294 295 296 296 296 296 296 298 299 301 300 300 300 302 303 302 301 300 298 295 291 289 288 288 288 288 288 288 288 288 289 290 290 290 290 291 291 291 291 293 295 298 299 300 298 296 295 294 292 290 288 285 282 278 275 272 271 269 268 267 265 263 262 262 262 263 264 267 270 273 277 280 284
269 274 279 283 285 287 289 291 293 294 294 293 294 295 297 298 298 298 297 297 298 300 300 299 300 301 302 302 301 300 299 297 295 291 287 286 285 286 286 287 288 288 288 290 291 291 290 290 290 291 291 293 297 300 303 304 304 302 299 298 297 296 294 291 287 283 279 275 272 271 269 268 266 265 263 261 261 262 263 264 266 269 272 275 278 282
274 280 284 285 287 289 291 293 293 293 293 294 295 297 299 299 298 296 295 297 298 298 297 297 298 300 301 300 300 300 299 297 294 292 289 285 283 283 285 287 288 289 290 292 292 292 292 290 290 292 294 296 299 301 303 302 301 299 299 298 298 297 295 293 289 285 281 278 275 273 271 270 268 266 264 262 261 261 263 264 267 269 272 274 276 279
282 286 287 286 287 289 291 292 292 293 295 296 298 300 300 299 297 295 296 297 297 296 295 296 296 297 298 299 300 300 298 297 295 294 292 287 283 283 287 290 291 292 294 296 297 296 294 292 292 293 295 296 298 298 298 298 298 298 298 298 298 297 295 293 291 288 285 281 279 277 275 273 270 268 265 263 261 261 262 263 265 268 270 271 273 275
287 287 285 285 286 290 292 294 296 297 300 301 302 302 302 303 300 299 300 299 296 294 293 294 295 296 298 300 301 301 299 298 298 298 296 292 289 289 291 293 293 294 296 299 300 299 296 295 294 294 295 295 296 296 297 298 299 300 301 302 302 301 299 297 293 290 287 284 282 281 279 277 274 271 267 264 262 260 259 259 260 263 265 267 268 270
285 282 281 283 288 292 295 297 299 301 304 305 306 307 308 308 307 305 304 300 296 293 291 292 293 295 296 298 298 298 297 296 297 297 295 293 291 290 292 292 292 293 294 295 296 297 298 298 297 296 296 296 296 297 299 301 303 304 305 306 306 305 304 303 299 294 290 288 286 285 284 282 279 275 271 268 265 262 260 258 258 258 258 260 262 264
279 278 280 286 290 294 296 298 300 302 304 305 307 309 310 310 309 307 304 300 297 294 292 291 292 293 294 293 292 291 292 293 294 295 293 291 289 289 290 290 291 291 291 290 288 289 292 295 296 297 298 297 298 299 300 302 304 305 306 305 304 304 305 306 304 300 297 294 292 291 290 288 284 280 276 272 269 266 264 262 259 257 255 255 256 258
277 279 284 288 292 294 296 298 299 300 300 301 303 306 309 310 310 309 306 303 299 296 293 291 292 292 293 292 291 289 289 291 294 295 293 290 288 288 289 289 290 290 290 289 286 284 284 287 292 295 297 297 297 298 300 301 301 302 303 303 303 303 305 306 306 304 301 299 296 295 293 292 289 285 281 277 273 269 267 265 263 260 257 254 253 254
277 281 285 288 291 293 294 296 296 295 294 296 298 302 307 310 312 313 311 309 306 302 297 294 292 291 292 292 293 292 293 295 297 298 294 289 287 288 289 289 289 290 290 289 288 286 284 285 288 292 295 296 296 296 297 299 299 300 302 302 303 304 305 306 306 305 302 300 297 294 292 291 290 288 285 282 277 273 271 268 266 263 260 257 254 254
278 282 284 286 288 291 293 294 294 292 291 292 296 301 307 311 314 316 316 315 312 308 304 300 296 293 292 291 291 293 296 301 305 304 298 291 288 288 288 288 288 288 289 289 288 288 287 286 287 289 292 294 295 295 296 297 298 300 302 302 303 303 304 305 305 304 302 299 296 293 290 288 286 285 284 283 281 279 276 273 270 266 263 259 257 256
278 279 280 281 284 288 290 291 291 291 290 292 296 302 308 313 316 318 319 319 317 315 311 308 304 300 296 294 292 293 298 306 311 310 304 297 292 289 287 286 286 286 287 287 287 287 287 287 288 288 289 291 292 294 295 297 298 299 301 301 301 301 302 302 301 300 299 297 295 292 290 287 285 282 280 279 278 276 275 273 271 269 265 262 260 258
274 275 276 278 282 285 288 290 290 290 292 294 298 303 309 314 318 320 322 323 323 321 318 315 312 308 304 301 299 300 304 309 314 315 312 306 300 293 288 286 286 285 284 283 284 285 286 287 288 288 288 287 289 291 294 296 297 298 298 299 300 300 300 299 298 297 297 297 296 294 292 289 287 284 281 278 274 271 269 267 267 267 267 265 263 261
271 272 273 276 280 283 286 288 289 292 294 297 301 305 310 315 319 323 324 326 326 325 323 321 318 315 313 310 308 308 310 312 315 317 317 314 308 300 293 289 287 285 283 282 282 282 283 284 285 286 287 286 287 288 290 293 294 295 296 298 299 299 299 299 300 301 300 298 295 293 290 289 287 285 284 282 278 273 269 266 266 267 269 269 268 265
267 269 271 274 277 280 283 286 290 294 298 300 303 307 311 316 320 324 326 327 327 326 325 323 320 317 316 314 312 311 312 313 315 317 318 316 312 305 297 292 288 286 285 284 282 281 279 279 280 282 283 285 287 287 288 289 290 291 294 296 297 298 299 300 302 302 299 293 289 287 285 284 283 283 284 285 282 278 272 268 268 271 274 275 274 271
264 266 269 272 276 280 284 288 293 297 300 303 306 309 312 316 320 324 327 327 327 327 326 324 321 318 316 315 314 313 313 314 315 316 316 316 315 311 304 296 292 289 287 285 283 280 278 277 277 278 280 282 284 286 287 286 286 288 290 292 293 294 296 299 300 300 298 293 288 285 284 284 283 283 282 283 282 279 274 269 265 266 272 276 278 277
263 265 268 272 278 283 287 292 296 299 301 303 304 306 310 314 318 322 325 326 327 327 327 325 323 320 318 318 317 317 317 317 317 317 316 316 317 316 312 306 301 296 292 288 284 281 279 277 277 277 278 280 281 283 284 284 284 285 286 286 286 289 292 295 297 299 300 299 296 293 291 290 289 287 286 284 282 279 275 268 260 254 257 267 273 275
261 264 269 275 280 285 290 295 298 299 299 300 301 303 307 312 316 319 321 323 325 326 327 325 322 319 319 320 322 323 323 322 320 319 317 317 317 317 316 314 310 305 299 292 287 283 280 278 276 276 277 278 280 281 281 282 282 282 282 281 283 286 289 291 293 296 298 299 298 296 293 292 293 293 292 290 286 282 275 266 255 244 237 242 255 266
261 265 270 276 282 287 292 296 297 296 297 298 300 302 306 311 314 316 318 319 322 324 326 325 322 319 317 318 321 324 325 325 323 320 317 316 316 316 316 316 315 312 305 297 290 285 283 280 277 276 276 277 278 278 279 280 281 281 280 280 281 283 284 285 288 291 293 292 289 286 284 284 286 289 290 290 287 283 275 265 252 239 227 222 229 245
262 267 272 277 283 287 291 292 292 293 294 295 298 301 305 309 312 314 315 318 320 323 324 323 321 319 317 317 319 322 324 325 325 323 320 317 315 315 314 315 316 315 310 301 292 287 285 282 280 278 277 277 277 276 277 279 280 281 281 280 279 278 277 279 283 286 287 288 287 284 279 273 272 273 276 278 279 278 274 267 255 241 229 220 218 225
264 267 271 275 280 283 285 286 288 290 292 294 296 300 304 307 310 312 314 317 319 321 321 321 319 316 314 315 318 320 321 323 324 324 322 320 318 315 314 314 315 315 314 307 299 292 287 284 282 281 280 279 277 276 275 277 279 280 281 280 279 278 277 279 281 282 283 287 289 290 285 275 268 266 266 267 268 269 268 263 254 243 233 224 219 219
261 264 268 272 276 279 281 284 287 289 291 293 295 298 302 304 307 309 312 315 317 319 320 320 317 313 311 313 316 317 318 319 321 322 323 322 321 319 317 316 315 315 314 312 307 300 292 286 284 283 282 281 278 276 275 275 277 279 280 281 280 280 280 280 280 281 283 286 291 294 294 286 276 270 267 266 266 265 262 257 250 241 233 227 223 221
259 262 266 271 275 279 282 285 288 289 291 292 293 296 298 300 302 305 309 314 316 318 319 319 316 313 311 312 313 314 314 315 317 319 321 322 322 320 318 317 316 315 314 312 310 306 300 293 287 283 281 279 277 276 275 275 275 276 278 280 281 281 280 280 280 282 285 287 290 294 298 294 285 277 272 270 269 267 263 257 248 240 233 228 225 223
258 262 266 271 275 279 283 285 288 289 290 291 292 293 295 296 298 301 305 311 315 317 318 317 315 314 313 313 313 313 312 312 313 315 317 319 321 321 319 317 316 315 314 314 312 310 307 304 297 289 281 276 274 274 274 274 274 275 276 278 279 279 279 280 281 283 285 286 288 292 295 293 288 282 277 274 271 269 266 261 252 242 234 228 225 224
258 262 267 271 275 279 282 285 287 288 289 289 291 292 293 294 295 297 301 307 312 315 316 315 314 313 313 313 314 315 313 312 312 313 315 317 318 319 319 319 318 316 316 316 315 314 312 311 307 300 291 281 275 274 274 275 276 276 276 276 277 277 278 279 280 281 283 284 286 289 291 290 286 281 276 274 271 269 267 264 256 246 236 229 225 223
258 262 267 271 276 279 283 286 287 287 288 289 290 291 293 293 294 295 299 305 310 313 313 313 312 311 311 313 314 315 314 313 312 313 315 316 317 318 318 319 319 318 318 317 316 314 312 310 308 306 301 292 284 279 277 278 279 280 279 278 278 278 278 279 280 280 280 281 282 284 286 287 285 279 274 271 270 269 267 265 259 250 239 232 227 224
258 263 267 272 276 280 284 286 287 287 287 289 291 292 292 292 292 294 298 303 307 310 311 311 311 310 310 312 313 314 313 312 312 313 315 316 317 317 318 318 318 317 316 315 314 313 311 308 306 305 303 300 293 284 280 280 281 281 279 279 280 281 280 280 281 281 279 278 277 278 279 281 282 279 274 270 268 267 266 263 259 251 242 235 231 227